Location: Unspecified
(45.3999°N, 88.1269°W)
Time: 16:19:50
(UTC-05:00)

Resurs 1-4 Rocket - Visible Passes

Search period start: 18 June 2018 00:00
Search period end: 28 June 2018 00:00
Orbit: 800 x 813 km, 98.5° (Epoch: 17 June)

Date Brightness Start Highest point End Pass type
(mag) Time Alt. Az. Time Alt. Az. Time Alt. Az.
18 Jun 3.3 02:15:03 10° NNE 02:19:55 35° E 02:23:17 18° SSE visible
18 Jun 3.1 03:54:57 10° N 03:59:43 34° WNW 04:04:21 10° SW visible
19 Jun 3.9 01:51:02 10° NE 01:55:07 22° E 01:58:24 13° SE visible
19 Jun 2.4 03:30:05 10° N 03:35:17 54° WNW 03:39:28 16° SW visible
20 Jun 4.4 01:27:45 10° ENE 01:30:14 13° E 01:32:44 10° ESE visible
20 Jun 2.1 03:05:24 10° NNE 03:10:46 86° WNW 03:14:34 20° SSW visible
21 Jun 2.5 02:40:53 10° NNE 02:46:10 59° E 02:49:41 21° S visible
21 Jun 3.7 04:21:34 10° NNW 04:25:34 22° WNW 04:29:31 10° WSW visible
22 Jun 3.2 02:16:33 10° NNE 02:21:28 36° E 02:24:48 18° SSE visible
22 Jun 3.1 03:56:29 10° N 04:01:13 33° WNW 04:05:53 10° SW visible
23 Jun 3.9 01:52:31 10° NE 01:56:41 23° E 01:59:54 14° SE visible
23 Jun 2.5 03:31:38 10° N 03:36:48 52° WNW 03:40:59 15° SW visible
24 Jun 4.4 01:29:08 10° ENE 01:31:48 14° E 01:34:26 10° ESE visible
24 Jun 2.1 03:06:56 10° NNE 03:12:18 84° WNW 03:16:05 20° SSW visible
25 Jun 2.4 02:42:24 10° NNE 02:47:42 61° ESE 02:51:12 21° S visible
25 Jun 3.7 04:23:09 10° NNW 04:27:03 21° WNW 04:30:58 10° WSW visible
26 Jun 3.2 02:18:03 10° NNE 02:23:00 38° E 02:26:17 19° SSE visible
26 Jun 3.2 03:58:03 10° N 04:02:44 32° WNW 04:07:22 10° SW visible
27 Jun 3.8 01:53:59 10° NE 01:58:13 23° E 02:01:23 14° SE visible
27 Jun 2.5 03:33:11 10° N 03:38:20 51° WNW 03:42:28 15° SW visible
